METOP-C

Last updated on Mon Sep 21 2026 00:02:41 GMT+0000 (Coordinated Universal Time)

1 43689U 18087A 26263.51354367 .00000033 00000+0 35425-4 0 9995 2 43689 98.7333 321.4106 0000639 56.0664 304.0574 14.21473582408379
UTC large
Height (km)
Speed (km/s)
/
Latitude / Longitude
Inclination (degrees)
Orbital Period (minutes)
Azimuth
Elevation
Range (km)
Doppler Factor

Next 0 passes for location: London (51.5072 / 0.1276)

No passes found over London.
METOP-C